Location: Azul
(36.7830°S, 59.8500°W)
Time: 09:22:10
(UTC-03:00)

XW-2D - Visible Passes

Search period start: 22 October 2021 00:00
Search period end: 01 November 2021 00:00
Orbit: 503 x 524 km, 97.5° (Epoch: 22 October)

Date Brightness Start Highest point End Pass type
(mag) Time Alt. Az. Time Alt. Az. Time Alt. Az.
22 Oct ? 05:04:24 10° E 05:05:42 11° ESE 05:07:00 10° SE visible
22 Oct ? 19:43:26 10° SSW 19:46:33 23° WSW 19:49:38 10° NW visible
27 Oct ? 05:19:24 10° ENE 05:22:01 18° ESE 05:24:39 10° SSE visible
27 Oct ? 20:00:36 10° SSW 20:02:53 15° WSW 20:05:08 10° WNW visible
28 Oct ? 05:05:13 10° E 05:06:40 12° ESE 05:08:07 10° SE visible
